Tracking 35331 objects as of 16-Sep-2026
HD Live streaming from Space Station
objects crossing your sky now

STARLINK-2109

Track STARLINK-2109 now!
10-day predictions
STARLINK-2109 is classified as:


NORAD ID: 47388
Int'l Code: 2021-005AR
Launch date: January 20, 2021
Source: United States (US)
Launch site: AIR FORCE EASTERN TEST RANGE (AFETR)
Your satellite tracking list
Your tracking list is empty




NASA's NSSDC Master Catalog

Two Line Element Set (TLE):
1 47388U 21005AR  26257.30847300  .00031218  00000-0  92447-3 0  9999
2 47388  53.1572 268.0088 0004570  41.1960 318.9387 15.34623368311874
Source of the keplerian elements: AFSPC